Faith, SD

9:01 PM MDT on July 26, 2017 (GMT -0600)
Faith

Weather History for KD07 - April, 2014

Change the Weather History Date:

Friday, April 4, 2014

  Actual Average Record
Temperature  
Mean Temperature 31 °F 40 °F  
Max Temperature 42 °F 51 °F 75 °F (2005)
Min Temperature 20 °F 28 °F 10 °F (2007)
Degree Days  
Heating Degree Days 34 25  
Month to date heating degree days 162 103  
Since 1 July heating degree days 7366 6794  
Cooling Degree Days 0 0  
Month to date cooling degree days 0 0  
Year to date cooling degree days 0 0  
Moisture  
Dew Point 25 °F    
Average Humidity 74    
Maximum Humidity 92    
Minimum Humidity 55    
Precipitation  
Precipitation 0.00 in 0.04 in 0.10 in (2001)
Month to date precipitation 0.16 0.12  
Year to date precipitation 2.25 1.72  
Sea Level Pressure  
Sea Level Pressure 30.08 in    
Wind  
Wind Speed 11 mph (SSW)    
Max Wind Speed 22 mph    
Max Gust Speed 25 mph    
T = Trace of Precipitation, MM = Missing Value Source: NWS Daily Summary

Daily Weather History Graph

Daily Weather History Graph

Search for Another Location

Airport or City:

Trip Planner

Search our weather history database for the weather conditions in past years. The results will help you decide how hot, cold, wet, or windy it might be!

Date:

Astronomy

Apr. 04, 2014 Rise Set
Actual Time 6:23 AM MDT 7:19 PM MDT
Civil Twilight 5:53 AM MDT 7:49 PM MDT
Nautical Twilight 5:17 AM MDT 8:25 PM MDT
Astronomical Twilight 4:40 AM MDT 9:03 PM MDT
Moon 9:32 AM MDT (4/4) No Moon Set
Length of Visible Light 13h 56m
Length of Day
12h 56m
Waxing Crescent, 26% of the Moon is Illuminated
Apr 4
Waxing Crescent
Apr 7
First Quarter
Apr 15
Full
Apr 22
Last Quarter
Apr 29
New

Hourly Weather History & Observations

Time (MDT) Temp. Windchill Dew Point Humidity Pressure Visibility Wind Dir Wind Speed Gust Speed Precip Events Conditions
12:56 AM 30.0 °F 21.1 °F 24.1 °F 79% 30.15 in - NW 10.4 mph - N/A   Unknown
1:56 AM 28.9 °F 21.1 °F 25.0 °F 85% 30.16 in - WNW 8.1 mph - N/A   Unknown
2:56 AM 28.0 °F 20.0 °F 24.1 °F 85% 30.16 in - WNW 8.1 mph - N/A   Unknown
3:56 AM 27.0 °F 19.5 °F 23.0 °F 85% 30.15 in - WNW 6.9 mph - N/A   Unknown
4:56 AM 24.1 °F 17.0 °F 21.0 °F 88% 30.15 in - WNW 5.8 mph - N/A   Unknown
5:56 AM 21.9 °F 11.0 °F 19.0 °F 89% 30.16 in - WNW 10.4 mph - N/A   Unknown
6:56 AM 21.0 °F 11.4 °F 18.0 °F 88% 30.17 in - WNW 8.1 mph - N/A   Unknown
7:56 AM 24.1 °F 15.2 °F 19.9 °F 84% 30.15 in - WNW 8.1 mph - N/A   Unknown
8:56 AM 28.9 °F 23.9 °F 23.0 °F 78% 30.15 in - WNW 4.6 mph - N/A   Unknown
9:56 AM 32.0 °F - 25.0 °F 75% 30.15 in - Calm Calm - N/A   Unknown
10:56 AM 33.1 °F 30.0 °F 25.0 °F 72% 30.13 in - SSE 3.5 mph - N/A   Unknown
11:56 AM 34.0 °F 28.0 °F 26.1 °F 73% 30.12 in - SSW 6.9 mph - N/A   Unknown
12:56 PM 36.0 °F 29.0 °F 27.0 °F 70% 30.09 in - South 9.2 mph - N/A   Unknown
1:56 PM 39.0 °F 32.8 °F 28.0 °F 65% 30.06 in - SSE 9.2 mph - N/A   Unknown
2:56 PM 41.0 °F 33.5 °F 28.0 °F 60% 30.04 in - SSE 13.8 mph - N/A   Unknown
3:56 PM 42.1 °F 34.5 °F 28.9 °F 60% 30.01 in - SSE 15.0 mph - N/A   Unknown
4:56 PM 41.0 °F 32.8 °F 28.0 °F 60% 30.01 in - SSE 16.1 mph - N/A   Unknown
5:56 PM 41.0 °F 33.1 °F 27.0 °F 57% 30.00 in - SSE 15.0 mph - N/A   Unknown
6:56 PM 37.0 °F 28.1 °F 28.0 °F 70% 30.00 in - SSE 15.0 mph - N/A   Unknown
7:56 PM 34.0 °F 23.8 °F 28.0 °F 79% 29.99 in - SSE 16.1 mph - N/A   Unknown
8:56 PM 35.1 °F 24.8 °F 25.0 °F 67% 29.97 in - SE 17.3 mph - N/A   Unknown
9:56 PM 33.1 °F 21.9 °F 27.0 °F 78% 29.96 in - SSE 18.4 mph - N/A   Unknown
10:56 PM 32.0 °F 20.5 °F 26.1 °F 79% 29.94 in - SE 18.4 mph - N/A   Unknown
11:56 PM 32.0 °F 20.5 °F 25.0 °F 75% 29.93 in - SSE 18.4 mph - N/A   Unknown